Regional Weather Roundup
Issued by NWS

Home | Current Version | Previous Version | Text Only | Print | Product List | Glossary Off
Versions: 1 2 3 4 5 6 7 8 9 10 11 12 13 14 15 16 17 18 19 20 21 22 23 24 25 26 27 28 29 30 31 32 33 34 35 36 37 38 39 40 41 42 43 44 45 46 47 48 49 50

000
ASUS45 KTFX 020604
RWRMT
MONTANA REGIONAL WEATHER ROUNDUP
NATIONAL WEATHER SERVICE GREAT FALLS MT
1200 AM MDT WED SEP 02 2015

NOTE: "FAIR" INDICATES FEW OR NO CLOUDS BELOW 12000 FEET WITH NO
SIGNIFICANT WEATHER AND/OR OBSTRUCTIONS TO VISIBILITY.

MTZ001>007-043-020700-
WEST OF THE DIVIDE

CITY           SKY/WX    TMP DP  RH WIND       PRES   REMARKS
KALISPELL      CLOUDY    54  39  57 SE3       29.75F
MISSOULA       PTCLDY    61  38  42 N5        29.78R
BUTTE          CLEAR     54  36  50 SE7       29.90S
MULLAN PASS    CLOUDY    53  30  41 SW6       29.90S
DEER LODGE       N/A     50  36  57 CALM      29.88S
EUREKA           N/A     57  43  58 CALM        N/A
HAMILTON         N/A     57  43  58 SE3       29.79R
LIBBY            N/A     57  37  47 CALM      29.74S
$$

MTZ008-052>055-020700-
SOUTHWEST MONTANA

CITY           SKY/WX    TMP DP  RH WIND       PRES   REMARKS
BOZEMAN        PTCLDY    59  37  44 SE9       29.82R
DILLON         CLEAR     62  28  27 SW10      29.87R
W YELLOWSTONE  MOCLDY    46  27  46 S3        30.05S
$$

MTZ009-010-012-014-046-048-049-054-020700-
EAST SLOPES AND CENTRAL MONTANA

CITY           SKY/WX    TMP DP  RH WIND       PRES   REMARKS
CUT BANK       MOCLDY    57  30  35 SW5       29.76F
GREAT FALLS    MOCLDY    67  32  27 E9        29.76F
MALMSTROM AFB  MOCLDY    63  33  32 S7        29.76F
HELENA         PTCLDY    62  34  35 W7        29.77F
$$

MTZ011-013-016-021-045-047-050-051-020700-
NORTH CENTRAL MONTANA

CITY           SKY/WX    TMP DP  RH WIND       PRES   REMARKS
HAVRE          PTCLDY    55  36  48 N3        29.72R
LEWISTOWN      PTCLDY    65  38  36 E14       29.82F
N BAR RANCH      N/A     55  37  50 W6        29.89S
CHINOOK          N/A     61  39  44 E6        29.72S
FORT BENTON      N/A     64  34  32 NW3       29.73F
$$

MTZ017>020-022>027-061-062-020700-
NORTHEAST MONTANA

CITY           SKY/WX    TMP DP  RH WIND       PRES   REMARKS
GLASGOW        CLEAR     60  41  49 E9        29.75F
JORDAN           N/A     56  34  43 CALM      29.78S
SIDNEY         CLEAR     63  39  42 NW7       29.78S
WOLF POINT     CLEAR     58  44  60 E6        29.77S
PLENTYWOOD       N/A     66  39  37 E8        29.79S
POPLAR           N/A     61  43  51 E3        29.78S
$$

MTZ028>42-056>058-020700-
SOUTHCENTRAL AND SOUTHEAST MONTANA

CITY           SKY/WX    TMP DP  RH WIND       PRES   REMARKS
BAKER          CLEAR     62  51  67 SE5       29.83F
BILLINGS       CLEAR     68  30  24 N3        29.79F
LIVINGSTON     PTCLDY    69  27  20 S7        29.84F
MILES CITY     CLEAR     65  37  35 NE8       29.77S
FORSYTH          N/A     70  32  24 E6        29.76S
$$

REGIONAL REPORTS...DAKOTAS

CITY           SKY/WX    TMP DP  RH WIND       PRES   REMARKS
WILLISTON      CLEAR     60  42  51 NE3       29.79S
MINOT            N/A     67  60  78 SE7       29.76F
DICKINSON      CLEAR     64  55  72 S8        29.80S
BISMARCK       CLEAR     70  66  87 E5        29.79S
GRAND FORKS      N/A     68  58  70 SE6       29.82S
FARGO            N/A     73  69  87 SE7       29.83S
BUFFALO SD       N/A     69  54  58 S6        29.79S
RAPID CITY     CLEAR     62  53  72 NW7       29.87F
$$

REGIONAL REPORTS...WYOMING/IDAHO/WASHINGTON

CITY           SKY/WX    TMP DP  RH WIND       PRES   REMARKS
GILLETTE       PTCLDY    66  33  29 S10       29.89F
SHERIDAN       CLEAR     62  38  40 N6        29.83F
BUFFALO WY     PTCLDY    71  30  21 SE7       29.93F
CODY           CLEAR     70  28  21 SW10      29.92F
YELLOWSTONE LA   N/A     43  30  60 CALM      30.17S
IDAHO FALLS    CLEAR     57  44  62 CALM      29.91R
SALMON         CLEAR     57  36  44 N5        29.80S
BOISE          CLEAR     73  38  27 S8        29.73S
SPOKANE        CLOUDY    64  44  48 S6        29.74F
$$

REGIONAL REPORTS...ALBERTA

CITY           SKY/WX    TMP DP  RH WIND       PRES   REMARKS
EDMONTON       MOCLDY    50  45  81 E6        29.67F
$$

REGIONAL REPORTS...SASKATCHEWAN

CITY           SKY/WX    TMP DP  RH WIND       PRES   REMARKS
$$


USA.gov is the U.S. government's official web portal to all federal, state and local government web resources and services.